CAPE
6 1 1 2 2 1 1 0 0 0 0 0 0 0 0 0 0 0 0 0 0 0 0 0 0 0 0 0 0 0 0 0 0 0 0 0 0 0 0 0 0 0 0 0 0 0 0
3 2 2 2 1 0 0 0 0 0 0 0 0 0 0 0 0 0 0 0 0 0 0 0 0 0 0 0 0 0 0 0 0 0 0 0 0 0 0 0 0 0 0 0 0 0 0
2 3 3 1 0 0 0 0 0 0 0 0 0 0 0 0 0 0 0 0 0 0 0 0 0 0 0 0 0 0 0 0 0 0 0 0 0 0 0 0 0 0 0 0 0 0 0
1 5 2 0 0 0 0 0 0 0 0 0 0 0 0 0 0 0 0 0 0 0 0 0 0 0 0 0 0 0 0 0 0 0 0 0 0 0 0 0 0 0 0 0 0 0 0
4 3 1 0 0 0 0 0 0 0 0 0 0 0 0 0 0 0 0 0 0 0 0 0 0 0 0 0 0 0 0 0 0 0 0 0 0 0 0 0 0 0 0 0 0 0 0
3 2 0 0 0 0 0 0 0 0 0 0 0 0 0 0 0 0 0 0 0 0 0 0 0 0 0 0 0 0 0 0 0 0 0 0 0 0 0 0 0 0 0 0 0 0 0
2 1 0 0 0 0 0 0 0 0 0 0 0 0 0 0 0 0 0 0 0 0 0 0 0 0 0 0 0 0 0 0 0 0 0 0 0 0 0 0 0 0 0 0 0 0 0
1 0 0 0 0 0 0 0 0 0 0 0 0 0 0 0 0 0 0 0 0 0 0 0 0 0 0 0 0 0 0 0 0 0 0 0 0 0 0 0 0 1 1 0 0 0 0
0 0 0 0 0 0 0 0 0 0 0 0 0 0 0 0 0 0 0 0 0 0 0 0 0 0 0 0 0 0 0 0 0 0 0 0 0 0 0 0 0 0 4 1 2 3 0
0 0 0 0 0 0 0 0 0 0 0 0 0 0 0 0 0 0 0 0 0 0 0 0 0 0 0 0 0 0 0 0 0 0 0 0 0 0 0 0 0 0 0 0 3 23 33
0 0 0 0 0 0 0 0 0 0 0 0 0 0 0 0 0 0 0 0 0 0 15 0 0 0 0 0 0 0 0 0 0 0 0 0 0 1 0 1 1 0 0 0 8 26 37
0 0 0 0 0 0 0 0 0 0 0 0 0 0 0 0 0 0 0 0 0 3 0 0 0 0 0 0 0 0 0 0 0 0 0 3 8 10 11 8 10 12 2 1 20 11 68
0 0 0 0 0 0 0 0 0 0 0 0 0 0 0 0 0 0 0 0 0 15 0 0 0 0 0 0 0 0 0 0 0 0 5 8 18 21 2 22 27 58 38 48 56 147 63
0 0 0 0 0 0 0 0 0 0 0 0 0 0 0 0 0 0 0 0 0 0 0 0 0 0 0 0 0 0 1 2 0 8 12 18 38 0 6 25 29 36 45 72 59 97 94
0 0 0 0 0 0 0 0 0 0 0 0 0 0 0 0 0 0 0 3 0 0 0 0 0 0 1 5 0 11 12 0 13 15 49 30 1 6 4 4 28 16 100 51 1 12 22
0 0 0 0 0 0 0 0 0 0 0 0 0 0 0 0 0 0 0 0 0 0 0 0 0 0 4 9 5 17 14 0 16 29 29 20 30 20 26 11 16 54 35 88 48 18 87
0 0 0 0 0 0 0 0 0 0 0 0 0 0 0 0 0 0 9 0 0 0 0 1 2 3 5 6 8 12 15 5 8 13 23 62 49 21 0 24 66 90 161 131 27 5 61
0 0 0 0 0 0 0 0 0 0 0 0 0 0 0 0 0 0 0 0 0 0 0 1 4 7 8 5 12 19 17 11 11 11 18 41 20 39 6 2 1 29 154 105 55 24 13
0 0 0 0 0 0 0 0 0 0 0 0 0 0 0 0 0 0 0 0 0 0 0 0 3 6 6 11 14 16 13 15 6 24 27 23 20 14 5 0 9 40 3 43 0 9 51
0 0 0 0 0 0 0 0 0 0 0 0 0 0 0 0 0 0 0 0 0 0 0 0 3 3 12 15 16 11 14 14 4 11 5 18 6 2 41 59 45 17 7 6 4 9 17
0 0 0 0 0 0 0 0 0 0 0 0 0 0 0 9 0 0 0 0 0 0 0 1 6 7 11 17 17 15 15 9 5 10 21 48 28 7 34 28 9 22 13 11 23 23 25
0 0 0 0 0 0 0 0 0 0 0 0 0 0 0 0 0 0 0 0 0 0 0 2 9 11 12 12 8 22 18 18 35 18 28 45 37 18 12 0 0 12 11 9 19 23 17
0 0 0 0 0 0 0 0 0 0 0 0 0 0 0 0 0 0 0 0 0 0 0 0 5 12 10 15 6 14 29 44 27 16 14 25 22 25 11 0 9 5 38 8 8 30 41
0 0 0 0 0 0 0 0 0 0 0 0 0 0 0 0 0 0 0 0 0 0 0 1 2 7 3 0 0 19 20 18 23 10 15 32 18 8 9 6 8 33 41 11 6 41 45
0 0 0 0 0 0 0 0 0 0 0 0 0 0 0 0 0 0 0 0 0 0 0 0 0 0 1 8 28 9 13 10 13 13 1 0 6 0 22 12 20 4 12 32 23 12 76
0 0 0 0 0 0 0 0 0 0 0 0 0 0 0 0 0 0 0 0 0 0 3 0 0 0 1 8 7 13 21 6 6 11 6 3 0 2 1 6 4 14 14 0 7 0 59
0 0 0 0 0 0 0 0 0 0 0 0 0 0 0 10 0 0 0 0 0 0 0 0 0 6 11 19 24 18 16 4 10 8 10 16 14 14 8 2 1 37 15 0 4 24 76
0 0 0 0 0 0 0 0 0 0 0 0 0 0 0 0 0 0 0 0 0 0 7 0 6 3 23 17 18 16 24 16 13 17 6 17 22 23 11 1 2 40 22 28 56 59 40
0 0 0 0 0 0 0 0 0 0 0 0 0 0 0 0 0 0 0 0 0 0 9 1 0 2 8 18 10 20 25 18 14 17 1 5 19 9 28 14 133 60 62 73 31 34 12
CIN
-0 -0 -0 -0 -0 -0 -0 -0 -0 -0 -0 -0 -0 -0 -0 -0 -0 -0 -0 -0 -0 -0 -0 -0 -0 -0 -0 -0 -0 -0 -0 -0 -0 -0 -0 -0 -0 -0 -0 -0 -0 -0 -0 -0 -0 -0 -0
-0 -0 -0 -0 -0 -0 -0 -0 -0 -0 -0 -0 -0 -0 -0 -0 -0 -0 -0 -0 -0 -0 -0 -0 -0 -0 -0 -0 -0 -0 -0 -0 -0 -0 -0 -0 -0 -0 -0 -0 -0 -0 -0 -0 -0 -0 -0
-0 -0 -0 -0 -0 -0 -0 -0 -0 -0 -0 -0 -0 -0 -0 -0 -0 -0 -0 -0 -0 -0 -0 -0 -0 -0 -0 -0 -0 -0 -0 -0 -0 -0 -0 -0 -0 -0 -0 -0 -0 -0 -0 -0 -0 -0 -0
-0 -0 -0 -0 -0 -0 -0 -0 -0 -0 -0 -0 -0 -0 -0 -0 -0 -0 -0 -0 -0 -0 -0 -0 -0 -0 -0 -0 -0 -0 -0 -0 -0 -0 -0 -0 -0 -0 -0 -0 -0 -0 -0 -0 -0 -0 -0
-0 -0 -0 -0 -0 -0 -0 -0 -0 -0 -0 -0 -0 -0 -0 -0 -0 -0 -0 -0 -0 -0 -0 -0 -0 -0 -0 -0 -0 -0 -0 -0 -0 -0 -0 -0 -0 -0 -0 -0 -0 -0 -0 -0 -0 -0 -0
-0 -0 -0 -0 -0 -0 -0 -0 -0 -0 -0 -0 -0 -0 -0 -0 -0 -0 -0 -0 -0 -0 -0 -0 -0 -0 -0 -0 -0 -0 -0 -0 -0 -0 -0 -0 -0 -0 -0 -0 -0 -0 -0 -0 -0 -0 -0
-0 -0 -0 -0 -0 -0 -0 -0 -0 -0 -0 -0 -0 -0 -0 -0 -0 -0 -0 -0 -0 -0 -0 -0 -0 -0 -0 -0 -0 -0 -0 -0 -0 -0 -0 -0 -0 -0 -0 -0 -0 -0 -0 -0 -0 -0 -0
-0 -0 -0 -0 -0 -0 -0 -0 -0 -0 -0 -0 -0 -0 -0 -0 -0 -0 -0 -0 -0 -0 -0 -0 -0 -0 -0 -0 -0 -0 -0 -0 -0 -0 -0 -0 -0 -0 -0 -0 -0 -0 -0 -0 -0 -0 -0
-0 -0 -0 -0 -0 -0 -0 -0 -0 -0 -0 -0 -0 -0 -0 -0 -0 -0 -0 -0 -0 -0 -0 -0 -0 -0 -0 -0 -0 -0 -0 -0 -0 -0 -0 -0 -0 -0 -0 -0 -0 -0 -0 -0 -0 -0 -0
-0 -0 -0 -0 -0 -0 -0 -0 -0 -0 -0 -0 -0 -0 -0 -0 -0 -0 -0 -0 -0 -0 -0 -0 -0 -0 -0 -0 -0 -0 -0 -0 -0 -0 -0 -0 -0 -0 -0 -0 -0 -0 -0 -0 -0 -0 -0
-0 -0 -0 -0 -0 -0 -0 -0 -0 -0 -0 -0 -0 -0 -0 -0 -0 -0 -0 -0 -0 -0 -0 -0 -0 -0 -0 -0 -0 -0 -0 -0 -0 -0 -0 -0 -0 -0 -0 -0 -0 -0 -0 -0 -0 -0 -0
-0 -0 -0 -0 -0 -0 -0 -0 -0 -0 -0 -0 -0 -0 -0 -0 -0 -0 -0 -0 -0 -0 -0 -0 -0 -0 -0 -0 -0 -0 -0 -0 -0 -0 -0 -0 -0 -0 -0 -0 -0 -0 -0 -0 -0 -0 -0
-0 -0 -0 -0 -0 -0 -0 -0 -0 -0 -0 -0 -0 -0 -0 -0 -0 -0 -0 -0 -0 -0 -0 -0 -0 -0 -0 -0 -0 -0 -0 -0 -0 -0 -0 -0 -0 -1 -0 -0 -2 -0 -0 -0 -0 -0 -0
-0 -0 -0 -0 -0 -0 -0 -0 -0 -0 -0 -0 -0 -0 -0 -0 -0 -0 -0 -0 -0 -0 -0 -0 -0 -0 -0 -0 -0 -0 -0 -0 -0 -0 -0 -0 -0 -0 -0 -0 -25 -3 -0 -0 -0 -0 -0
-0 -0 -0 -0 -0 -0 -0 -0 -0 -0 -0 -0 -0 -0 -0 -0 -0 -0 -0 -0 -0 -0 -0 -0 -0 -0 -0 -0 -0 -0 -0 -0 -0 -0 -0 -0 -0 -0 -0 -0 -0 -0 -0 -0 -0 -23 -17
-0 -0 -0 -0 -0 -0 -0 -0 -0 -0 -0 -0 -0 -0 -0 -0 -0 -0 -0 -0 -0 -0 -0 -0 -0 -0 -0 -0 -0 -0 -0 -0 -0 -0 -0 -0 -0 -0 -0 -12 -5 -5 -1 -0 -2 -0 -0
-0 -0 -0 -0 -0 -0 -0 -0 -0 -0 -0 -0 -0 -0 -0 -0 -0 -0 -0 -0 -0 -0 -0 -0 -0 -0 -0 -0 -0 -0 -0 -0 -0 -0 -0 -0 -0 -0 -0 -0 -1 -0 -0 -0 -0 -0 -3
-0 -0 -0 -0 -0 -0 -0 -0 -0 -0 -0 -0 -0 -0 -0 -0 -0 -0 -0 -0 -0 -0 -0 -0 -0 -0 -0 -0 -0 -0 -0 -0 -0 -0 -0 -0 -0 -0 -0 -0 -0 -10 -0 -0 -0 -0 -0
-0 -0 -0 -0 -0 -0 -0 -0 -0 -0 -0 -0 -0 -0 -0 -0 -0 -0 -0 -0 -0 -0 -0 -0 -0 -0 -0 -0 -0 -0 -0 -0 -0 -0 -7 -0 -0 -0 -0 -0 -0 -0 -0 -0 -0 -0 -0
-0 -0 -0 -0 -0 -0 -0 -0 -0 -0 -0 -0 -0 -0 -0 -0 -0 -0 -0 -0 -0 -0 -0 -0 -0 -0 -0 -0 -0 -0 -0 -0 -0 -0 -11 -0 -0 -0 -0 -0 -0 -0 -0 -0 -0 -0 -0
-0 -0 -0 -0 -0 -0 -0 -0 -0 -0 -0 -0 -0 -0 -0 -0 -0 -0 -0 -0 -0 -0 -0 -0 -0 -0 -0 -0 -0 -0 -0 -0 -0 -0 -0 -0 -0 -0 -0 -0 -0 -0 -0 -0 -0 -0 -0
-0 -0 -0 -0 -0 -0 -0 -0 -0 -0 -0 -0 -0 -0 -0 -0 -0 -0 -0 -0 -0 -0 -0 -0 -0 -0 -0 -0 -0 -0 -0 -0 -0 -0 -0 -0 -0 -0 -0 -2 -0 -0 -0 -0 -0 -0 -0
-0 -0 -0 -0 -0 -0 -0 -0 -0 -0 -0 -0 -0 -0 -0 -0 -0 -0 -0 -0 -0 -0 -0 -0 -0 -0 -0 -0 -0 -0 -0 -0 -0 -0 -0 -0 -0 -0 -0 -0 -0 -0 -0 -0 -0 -0 -0
-0 -0 -0 -0 -0 -0 -0 -0 -0 -0 -0 -0 -0 -0 -0 -0 -0 -0 -0 -0 -0 -0 -0 -0 -0 -0 -0 -0 -0 -0 -0 -0 -0 -0 -0 -0 -0 -0 -0 -0 -0 -0 -0 -0 -0 -0 -0
-0 -0 -0 -0 -0 -0 -0 -0 -0 -0 -0 -0 -0 -0 -0 -0 -0 -0 -0 -0 -0 -0 -0 -0 -0 -0 -0 -0 -0 -0 -0 -0 -0 -0 -0 -0 -0 -0 -0 -0 -0 -0 -0 -0 -0 -3 -0
-0 -0 -0 -0 -0 -0 -0 -0 -0 -0 -0 -0 -0 -0 -0 -0 -0 -0 -0 -0 -0 -0 -0 -0 -0 -0 -0 -0 -0 -0 -0 -0 -0 -0 -0 -0 -0 -0 -0 -0 -0 -0 -0 -0 -8 -0 -0
-0 -0 -0 -0 -0 -0 -0 -0 -0 -0 -0 -0 -0 -0 -0 -0 -0 -0 -0 -0 -0 -0 -0 -0 -0 -0 -0 -0 -0 -0 -0 -0 -0 -0 -0 -0 -0 -0 -0 -0 -0 -0 -1 -0 -0 -0 -0
-0 -0 -0 -0 -0 -0 -0 -0 -0 -0 -0 -0 -0 -0 -0 -0 -0 -0 -0 -0 -0 -0 -0 -0 -0 -0 -0 -0 -0 -0 -0 -0 -0 -0 -0 -0 -1 -0 -0 -0 -0 -0 -0 -0 -0 -0 -0
-0 -0 -0 -0 -0 -0 -0 -0 -0 -0 -0 -0 -0 -0 -0 -0 -0 -0 -0 -0 -0 -0 -0 -0 -0 -0 -0 -0 -0 -0 -0 -0 -0 -0 -0 -0 -0 -0 -0 -0 -0 -0 -0 -3 -0 -0 -0
Wind_Speed
7 4 3 3 2 1 3 3 4 5 5 6 6 7 7 7 7 8 9 9 9 8 8 10 12 12 10 7 9 13 9 4 12 8 7 10 10 11 16 12 14 15 18 16 12 8 12
5 4 3 2 2 2 3 3 4 5 5 5 6 7 7 7 8 9 10 10 10 8 7 9 12 13 10 11 9 12 13 7 8 9 9 8 9 11 13 16 14 10 12 20 13 14 14
5 4 3 2 2 2 3 4 4 5 5 5 5 6 7 8 9 9 9 9 8 1 3 6 12 3 21 10 10 13 13 6 6 8 10 8 7 10 10 12 15 11 14 17 18 16 17
5 3 3 2 2 2 3 4 5 5 5 5 6 7 8 8 8 6 5 5 7 6 1 5 8 0 8 7 10 15 14 11 12 5 8 11 9 13 15 13 9 16 18 20 20 21 19
4 3 2 2 3 3 4 5 5 5 5 6 7 8 9 6 5 3 1 2 5 6 5 9 6 5 7 2 16 16 15 14 13 9 5 8 13 15 15 13 17 20 19 23 21 24 19
5 3 2 3 3 4 5 5 5 5 6 6 8 10 7 4 3 2 4 4 2 8 7 4 7 8 12 10 10 15 18 15 14 11 14 14 12 14 15 15 20 18 25 21 22 14 17
4 3 3 3 4 5 6 6 6 6 6 7 9 9 6 3 2 4 6 6 8 5 17 19 14 12 9 10 5 13 19 16 13 15 10 11 14 15 19 20 25 23 26 27 15 14 15
3 2 3 3 4 6 6 6 6 6 7 9 9 8 4 0 2 8 9 3 5 10 12 11 10 11 9 4 8 14 16 13 14 12 13 12 17 14 15 21 20 18 23 24 19 9 6
3 2 3 4 5 6 6 6 6 6 8 9 8 6 4 4 6 5 8 6 3 3 6 7 6 10 13 4 11 14 17 14 11 13 15 17 18 19 15 18 18 19 22 21 22 19 20
4 3 3 4 6 6 6 7 6 8 9 8 8 6 5 2 3 2 5 2 2 4 7 5 7 7 11 4 3 9 12 10 8 11 11 10 9 8 14 19 20 22 22 24 24 23 20
3 3 4 5 6 5 6 6 6 8 8 9 11 7 8 4 3 1 5 1 0 4 3 5 6 3 4 8 9 12 5 7 11 12 8 11 12 13 16 17 17 22 23 22 22 24 23
3 3 5 5 5 6 6 6 5 6 7 9 11 13 2 3 6 5 2 1 4 4 4 2 3 7 9 10 3 8 5 2 4 15 12 14 15 11 13 13 14 16 20 21 19 20 20
3 3 5 5 6 6 5 5 4 5 5 4 5 9 11 5 5 3 3 5 2 5 1 5 7 8 9 12 5 13 10 12 10 11 16 20 12 8 5 13 8 18 15 12 15 17 12
4 5 5 5 6 6 6 5 4 4 2 1 1 9 9 7 4 1 5 5 7 3 5 4 6 8 5 8 10 10 11 10 11 14 16 12 12 10 8 17 17 15 14 13 18 16 16
4 5 5 6 7 7 7 6 4 4 2 1 6 1 8 7 4 3 7 7 2 4 5 7 5 6 5 10 7 10 12 9 9 13 9 10 8 15 6 9 11 5 14 16 20 7 10
4 5 6 7 7 7 7 6 4 2 2 3 3 2 9 8 4 6 6 4 5 3 5 4 6 4 8 13 11 13 14 5 12 13 5 6 10 8 10 4 10 16 6 8 5 5 9
5 6 7 8 7 7 7 6 4 1 3 5 4 3 7 8 4 2 3 7 7 5 5 6 6 5 8 10 7 8 10 5 15 14 13 4 5 9 10 11 15 7 8 9 10 7 5
5 7 8 8 8 7 6 5 3 2 5 7 2 2 7 6 1 4 7 4 3 5 2 3 2 5 7 6 4 7 7 8 11 14 15 8 6 3 7 20 12 11 7 9 10 2 2
6 7 8 9 8 7 6 4 1 2 5 3 3 5 4 6 4 6 8 9 6 4 6 3 4 5 2 5 1 9 8 7 8 14 14 14 10 10 1 22 22 22 21 6 8 8 11
7 8 9 9 9 8 7 0 4 1 5 5 1 3 4 4 7 9 8 5 5 3 5 2 2 1 4 3 6 8 10 6 3 12 12 7 18 18 14 12 16 15 27 25 17 8 8
7 9 9 10 10 8 5 5 4 1 5 4 4 3 1 2 6 8 7 3 6 3 0 5 1 5 4 3 3 13 12 11 1 14 3 2 11 19 16 20 22 27 27 27 27 19 11
8 9 10 10 10 9 5 3 4 2 6 1 4 4 5 7 4 5 3 5 6 5 5 5 7 5 4 3 7 7 10 11 11 12 3 3 9 7 7 6 26 28 28 27 26 26 22
9 9 11 11 11 11 8 3 4 2 5 3 3 1 2 6 5 3 5 4 5 4 5 6 6 6 4 4 5 4 7 6 13 16 8 5 4 3 4 10 7 18 19 20 20 22 20
9 10 10 11 11 12 12 8 4 3 8 5 4 4 5 8 8 8 5 2 2 4 4 5 7 4 5 5 4 4 5 1 16 19 12 4 3 4 2 6 10 4 13 8 12 17 19
9 10 11 12 11 11 12 12 12 11 12 8 1 3 5 8 9 10 10 4 5 4 5 6 8 5 2 6 5 1 0 1 4 19 18 9 3 6 4 11 6 17 16 12 8 16 16
9 10 11 11 12 11 12 11 12 12 10 8 6 3 6 5 8 4 6 9 6 4 7 6 7 1 6 2 2 3 5 4 7 4 15 14 14 8 10 7 8 14 16 18 9 8 21
9 9 10 11 11 11 11 11 11 11 10 7 6 4 9 9 10 11 7 8 7 4 1 4 3 0 5 5 3 5 6 6 6 7 10 8 7 12 9 6 7 10 16 15 12 9 17
8 9 9 10 11 10 11 11 11 11 12 5 7 7 8 11 13 15 15 14 9 9 6 5 5 3 6 5 4 3 6 4 6 6 4 9 5 5 7 6 7 12 8 8 4 10 14
8 8 9 10 10 10 11 12 11 9 11 6 9 6 8 8 11 10 13 13 9 9 6 7 5 4 2 2 3 6 6 4 9 5 12 6 7 5 8 5 3 5 4 6 6 10 14
Wind_Direction
143 147 132 121 117 52 29 19 3 1 356 353 342 337 339 343 339 326 318 319 310 304 301 300 303 310 285 95 27 343 289 239 268 306 303 309 288 271 262 256 262 241 263 259 262 231 254
146 131 130 113 84 43 25 10 1 359 354 350 342 337 336 339 334 322 326 322 307 289 282 287 297 309 236 86 350 353 347 332 336 305 303 289 304 330 299 279 262 277 278 260 234 243 238
145 142 127 102 78 40 15 8 1 1 358 347 342 335 339 339 328 329 338 343 356 154 245 287 301 81 69 54 349 356 352 347 332 308 297 306 295 280 306 276 266 255 251 250 244 237 237
155 134 120 103 73 42 20 17 9 7 7 355 346 343 343 342 322 335 356 27 65 93 150 267 287 35 80 30 348 3 353 335 330 299 285 280 276 270 276 275 253 251 243 251 234 222 223
141 136 120 91 57 32 30 27 18 17 14 358 350 349 359 345 309 320 151 116 136 135 229 241 245 108 67 184 19 360 356 335 320 301 270 286 254 254 261 241 254 233 251 238 240 227 201
141 138 110 75 51 36 37 37 27 20 11 1 352 3 19 25 351 184 209 283 282 187 215 265 30 133 42 360 356 3 356 337 334 304 279 229 240 245 227 245 247 246 234 233 252 185 212
144 123 92 68 52 37 38 39 29 16 9 0 358 6 22 53 2 180 197 225 196 98 56 67 65 67 22 6 228 22 350 333 349 314 286 328 295 260 266 248 254 261 272 274 271 223 205
127 104 80 66 49 34 37 33 33 16 11 2 2 2 12 175 112 207 257 278 25 125 90 65 66 59 33 333 18 33 355 4 338 337 309 273 258 268 314 305 294 268 271 253 255 234 199
124 98 74 52 38 33 30 34 31 19 13 3 2 8 7 215 283 212 62 81 90 319 114 70 51 35 16 343 38 21 6 10 4 334 342 321 306 324 313 292 280 263 262 262 260 246 219
110 76 58 41 36 27 24 37 32 28 15 3 16 21 5 217 238 146 76 72 67 337 203 50 28 50 8 131 89 14 10 352 14 359 346 296 338 313 296 292 291 273 262 262 260 254 242
109 77 50 34 34 21 22 32 35 35 26 26 25 27 343 309 112 96 72 59 232 246 269 51 32 301 89 42 332 33 359 344 351 350 309 327 302 294 287 286 293 289 289 276 268 247 249
88 56 42 30 28 19 20 26 35 44 46 49 26 5 271 230 69 57 75 198 230 234 55 85 7 350 345 26 21 343 336 196 345 321 283 294 290 285 292 299 279 278 264 265 255 256 234
70 43 34 22 17 12 11 25 36 50 58 66 46 16 28 22 51 18 205 216 207 53 163 27 348 340 325 5 353 353 346 46 12 335 335 318 346 351 324 288 305 266 239 236 229 226 229
50 26 23 16 9 7 10 18 27 40 35 75 224 268 66 41 18 164 241 222 68 319 20 2 331 302 25 17 358 335 7 11 5 335 320 343 325 7 319 302 291 289 262 232 229 213 219
46 17 10 11 10 7 8 14 12 26 20 233 204 139 41 18 305 282 262 54 68 17 359 345 269 321 27 25 327 342 31 19 343 9 340 310 309 296 289 280 280 268 247 259 254 303 273
41 15 5 6 9 3 4 2 11 16 315 281 282 205 44 342 301 254 60 100 97 28 336 285 20 4 355 19 3 353 13 346 354 346 332 300 287 20 338 36 253 253 338 258 95 251 206
29 7 2 359 0 356 353 350 0 1 295 303 268 195 25 336 279 67 94 91 98 67 358 338 18 10 12 29 340 18 7 91 9 342 330 284 263 341 27 7 328 174 221 224 213 238 318
23 8 360 352 355 350 343 349 337 216 305 271 205 84 3 319 33 56 71 72 323 56 132 75 328 7 23 17 16 17 359 17 5 339 358 2 294 6 43 42 17 44 278 257 201 243 352
21 8 359 354 354 351 353 351 321 215 283 271 68 74 36 269 95 96 124 97 59 52 33 21 52 41 17 15 5 23 357 59 14 6 5 324 9 29 100 30 34 33 30 45 311 292 2
19 9 3 0 3 6 357 54 140 79 320 293 158 56 9 68 59 112 111 94 115 66 67 33 6 80 252 93 64 17 358 21 84 25 2 358 61 70 60 48 35 41 39 36 36 20 356
22 11 5 6 10 14 17 116 128 125 309 289 60 46 8 119 76 91 90 77 79 88 60 15 165 62 334 357 59 31 19 13 145 360 43 24 106 99 90 71 58 54 46 39 38 29 22
27 12 6 10 13 18 23 159 119 183 307 53 130 132 136 105 121 111 140 63 43 82 4 22 6 15 268 50 53 31 38 29 34 342 27 170 174 166 49 101 65 39 40 35 31 20 22
31 19 13 14 19 28 34 104 159 297 316 91 96 112 114 172 108 71 41 49 46 331 89 33 354 317 195 83 5 44 76 79 34 16 9 9 4 318 52 3 316 31 28 41 30 22 9
37 28 22 21 24 36 48 70 87 296 275 119 106 117 109 83 75 62 45 57 16 37 11 25 20 45 21 294 225 219 224 41 43 37 45 10 32 11 37 216 43 65 19 61 40 28 12
45 34 29 28 30 35 50 57 51 42 29 100 178 119 91 103 95 53 50 65 117 130 56 28 25 15 273 184 258 231 158 77 67 46 45 46 6 52 59 58 138 28 351 337 332 42 7
49 40 34 30 31 40 49 58 62 50 23 93 47 348 99 86 40 349 12 33 12 19 149 77 70 127 225 231 71 313 54 347 25 39 10 39 69 70 63 59 41 352 328 327 167 36 353
57 44 36 35 34 37 43 47 56 47 11 78 62 349 98 98 47 35 39 11 13 3 15 86 22 279 298 84 34 19 67 7 26 21 352 10 29 42 53 77 84 357 337 327 57 337 320
66 49 39 38 34 37 45 46 47 33 25 78 63 63 104 100 74 56 44 28 19 20 32 7 224 35 7 53 78 22 38 92 101 33 48 15 331 20 34 44 50 3 345 23 321 312 352
77 58 47 44 42 41 45 56 54 36 17 65 89 72 86 84 98 81 64 44 31 14 329 56 86 69 5 15 76 58 74 62 44 64 26 56 50 46 18 56 263 306 215 273 19 357 4